Location: Althorst
(53.6379°N, 10.7715°E)
Time: 05:40:41
(UTC+00:00)

Ariane Rocket - Pass Details

Date: 10 December 2019
Orbit: 760 x 770 km, 98.7° (Epoch: 17 January)

Event Time Altitude Azimuth Distance (km) Brightness Sun altitude
Exits shadow 18:29:22 45° 328° (NNW) 1,041 3.8 -30.0°
Drops below altitude 10° 18:32:54 10° 341° (NNW) 2,309 5.7 -30.5°
Sets 18:35:13 0° 344° (NNW) 3,238 6.5 -30.9°
